Wind_Speed
25 26 26 28 30 31 30 30 29 29 28 27 26 26 26 24 23 22 21 19 17 16 14 13 12 11 10 10 10 10 10 11 11 12 13 13 12 12 11 11 11 11 10
23 24 25 26 27 29 30 30 30 30 29 29 27 27 27 26 25 24 23 21 20 19 17 16 14 13 12 11 11 11 11 11 11 12 12 13 12 12 12 12 11 11 11
20 22 23 25 26 27 28 29 30 30 30 30 29 28 28 28 27 25 24 23 22 21 20 19 17 16 14 13 13 13 12 12 12 12 12 13 12 12 12 12 12 12 12
19 20 21 23 25 26 27 28 29 29 30 30 30 30 29 29 29 27 25 25 24 23 22 21 20 18 17 16 15 14 14 13 12 13 13 13 13 13 13 12 12 12 13
17 18 19 21 22 24 25 26 27 28 29 30 30 30 30 29 29 29 28 26 25 25 24 24 23 21 19 18 17 16 15 15 14 13 14 14 13 13 13 13 13 13 13
16 16 17 18 20 21 23 24 25 27 28 29 29 30 31 30 30 29 29 28 27 27 26 25 25 24 22 21 19 19 18 17 16 15 15 15 14 14 13 13 14 13 14
14 14 14 15 16 18 20 22 23 25 27 27 28 29 30 31 31 30 30 30 30 29 28 27 26 26 25 23 22 21 20 19 18 17 17 16 16 16 15 14 14 14 14
14 13 13 13 14 16 18 20 21 23 25 27 27 28 28 30 31 31 32 32 31 31 31 30 29 28 26 26 24 23 22 21 20 19 19 18 18 17 17 17 16 16 15
13 12 11 11 12 13 15 18 20 21 23 25 27 27 28 29 30 32 33 34 33 32 32 32 32 30 28 27 26 26 25 24 23 22 21 20 20 19 19 19 18 18 18
13 11 10 10 10 11 13 15 18 20 22 23 26 26 27 29 30 31 32 33 34 33 32 32 32 31 30 29 28 27 27 26 25 24 23 23 22 22 21 21 20 19 19
13 12 10 10 9 9 10 13 15 17 20 22 24 25 25 28 29 29 31 33 33 33 33 32 33 32 32 31 31 29 29 28 28 27 26 25 24 24 24 23 22 22 21
14 12 10 10 9 8 9 9 11 15 17 20 21 23 24 25 26 28 30 31 32 32 32 32 33 33 33 33 33 31 31 30 29 29 28 27 27 26 25 25 25 24 23
15 13 11 10 8 7 6 7 8 11 14 17 19 20 22 24 24 26 28 30 30 31 32 32 33 34 34 34 34 33 32 32 31 31 30 30 30 29 28 28 27 26 26
17 14 12 11 9 7 6 6 7 9 12 14 16 18 20 22 23 24 25 28 30 30 31 32 32 34 35 36 36 35 34 33 32 32 32 32 32 31 31 30 30 29 28
18 16 13 11 10 8 7 5 5 7 10 12 13 15 18 20 22 23 23 25 28 29 29 31 32 32 33 35 36 35 35 35 34 33 33 33 33 33 32 32 32 31 30
19 18 15 13 11 10 8 6 5 6 8 10 11 13 15 17 19 21 22 23 26 28 29 30 31 32 33 34 35 36 36 36 36 35 34 33 33 34 33 33 33 32 31
19 18 17 15 13 11 9 7 6 5 6 8 10 11 13 15 17 19 21 22 24 25 27 28 30 30 30 33 34 35 35 35 36 36 36 35 34 35 34 34 34 34 33
20 19 18 16 14 12 10 8 6 5 5 5 7 9 11 13 15 18 20 22 23 24 25 27 28 29 29 31 32 33 34 34 35 36 37 37 36 35 36 36 35 35 34
21 20 19 17 15 13 11 9 7 6 5 5 6 7 9 11 13 15 18 21 23 24 24 26 26 27 27 29 31 32 33 33 34 35 36 37 36 35 36 36 36 36 35
21 20 19 17 16 14 12 10 8 6 5 5 5 5 7 8 10 12 15 17 20 22 23 24 25 25 26 27 28 30 30 32 34 35 35 36 37 36 35 35 36 36 36
20 20 19 18 16 15 13 11 10 8 7 7 6 6 5 6 8 10 11 13 16 19 21 22 23 24 24 25 26 28 29 29 30 32 33 34 35 35 35 35 36 36 36
20 19 18 17 16 15 14 12 11 10 9 9 8 7 6 6 6 8 10 12 13 16 18 19 21 22 23 25 26 27 28 28 28 29 31 32 33 33 34 35 36 36 36
20 19 18 17 16 15 14 13 12 11 10 10 9 8 7 6 6 7 8 10 11 13 16 18 20 20 22 24 24 25 27 27 27 28 29 31 32 33 33 34 35 36 37
19 19 18 18 17 15 14 13 12 12 11 10 10 9 8 7 7 7 8 9 10 12 15 17 19 20 20 21 23 24 25 26 27 28 28 30 31 32 33 33 34 36 37
18 18 18 17 16 16 15 14 13 12 11 11 10 10 9 9 8 8 8 9 10 12 13 14 17 19 19 20 21 22 23 24 24 26 27 28 30 32 33 33 33 34 36
18 18 17 17 16 15 15 14 14 14 13 12 11 10 10 10 10 10 10 10 11 11 12 13 15 17 18 19 20 21 22 23 24 25 26 27 29 31 32 32 33 33 34
Wind_Direction
269 264 261 258 255 254 250 248 248 245 243 243 240 237 234 231 232 230 229 229 229 227 224 222 221 217 213 210 207 205 204 205 206 203 200 199 198 198 197 198 202 204 205
272 267 261 258 255 253 250 247 245 243 242 240 238 237 235 232 232 231 229 228 228 226 223 222 220 219 218 214 210 208 207 206 207 204 202 202 203 204 206 209 211 215 216
278 271 264 259 256 254 250 247 244 241 239 238 236 235 235 233 230 230 229 228 228 227 224 223 221 219 219 217 213 210 210 209 209 207 207 205 207 209 212 215 218 221 221
282 275 267 261 257 255 253 250 245 240 237 237 235 233 232 231 229 229 228 227 227 226 224 223 222 221 220 219 217 214 213 213 212 213 213 212 213 216 218 220 222 225 226
287 278 271 264 259 255 253 251 246 242 237 234 233 232 230 228 227 226 227 226 227 226 224 224 222 222 221 220 219 218 217 216 216 216 217 217 218 221 223 226 228 229 231
295 284 276 269 262 256 252 249 244 239 237 233 232 230 228 227 226 226 227 227 227 227 225 225 225 223 223 222 221 221 220 219 219 220 220 221 223 225 227 229 230 232 234
306 291 282 272 263 258 253 248 244 238 235 232 229 228 227 227 226 226 226 226 226 227 226 225 225 223 223 224 222 222 223 223 223 223 224 226 227 228 230 232 234 237 238
314 300 290 279 269 260 253 247 242 236 234 231 229 229 227 226 228 227 226 228 228 227 226 226 226 224 224 224 224 225 225 226 227 228 229 230 232 232 234 235 238 240 241
325 313 299 289 278 266 254 246 241 234 231 230 229 229 229 229 229 228 228 228 229 229 227 227 227 226 225 225 227 228 228 228 230 230 232 233 235 236 237 238 240 242 245
337 327 313 301 292 275 260 250 243 236 231 230 229 229 230 229 230 230 229 228 229 228 227 227 227 227 227 227 227 228 229 231 233 233 234 235 237 239 239 239 241 244 247
344 338 326 314 302 289 273 257 247 238 232 230 230 229 232 231 231 230 230 230 229 228 227 228 229 229 228 229 229 230 231 233 235 235 236 237 239 239 241 241 243 245 247
350 345 337 330 318 303 284 265 247 237 232 233 233 234 234 234 233 231 231 231 230 228 228 229 231 231 231 232 231 231 232 234 235 236 237 239 240 240 242 245 245 246 249
359 354 349 343 335 318 296 274 252 239 235 234 235 236 235 235 235 234 235 235 234 232 232 232 231 232 233 233 232 232 232 234 236 238 239 240 241 243 245 247 247 248 249
7 1 356 351 344 335 315 285 264 248 240 237 236 236 235 236 236 237 236 234 234 235 236 235 232 232 234 233 233 234 235 236 237 239 240 242 243 245 247 247 247 249 251
10 7 2 356 352 344 334 305 276 259 246 240 238 238 236 237 238 238 237 234 232 232 234 234 232 232 234 236 236 237 239 239 239 241 242 244 246 246 246 248 249 249 251
11 10 7 3 358 353 351 335 305 276 254 243 240 240 236 235 237 237 236 234 233 233 234 234 233 233 235 238 238 239 241 242 242 242 243 245 246 247 248 247 247 248 250
11 11 10 8 6 2 357 351 340 314 278 256 248 243 238 236 236 236 235 234 234 234 235 234 235 233 236 238 239 240 242 242 243 244 245 245 247 247 247 248 247 247 250
13 12 10 9 8 6 4 358 350 336 318 285 259 249 242 239 239 237 236 235 235 234 234 234 236 235 236 237 239 240 241 242 244 246 247 247 248 248 249 249 249 249 251
14 14 13 12 12 10 8 7 2 350 333 317 296 272 257 251 246 243 240 238 237 235 235 236 236 236 239 238 238 241 242 243 244 246 246 248 249 251 251 251 253 253 253
14 15 14 15 14 14 13 10 6 360 345 329 319 296 272 258 252 249 245 242 241 238 238 239 239 239 241 242 242 243 244 245 244 245 247 248 250 251 253 252 254 254 254
13 13 13 14 15 15 14 13 10 4 354 345 334 320 296 276 260 253 250 245 242 241 240 241 241 243 243 245 245 247 247 248 248 247 248 248 250 250 251 252 252 253 253
11 10 10 11 12 12 12 12 10 6 1 354 346 334 317 299 282 266 258 252 248 246 245 244 244 246 246 247 247 249 251 252 253 253 250 249 250 250 251 252 252 251 251
7 9 10 10 9 9 9 8 6 3 359 355 350 342 331 314 297 282 271 263 256 254 252 249 248 250 248 248 248 250 252 253 256 256 253 251 252 253 253 253 253 253 252
3 4 5 6 7 6 5 3 2 358 355 352 348 343 336 325 312 297 283 274 266 262 258 255 253 252 252 252 252 253 255 256 258 258 258 255 254 254 255 255 255 255 254
357 358 358 360 1 2 1 359 357 354 351 347 344 339 333 326 317 309 297 283 274 270 266 261 260 257 257 257 258 258 259 259 258 260 261 259 256 257 257 256 256 256 255
350 352 351 352 353 353 353 351 349 347 344 341 338 334 330 324 315 308 300 292 285 280 276 271 267 264 262 260 261 261 261 260 260 261 262 262 260 258 257 256 256 256 256
Height
5806 5806 5807 5808 5810 5811 5814 5816 5819 5822 5825 5828 5831 5835 5838 5841 5844 5847 5850 5853 5856 5858 5860 5862 5864 5865 5867 5869 5870 5872 5874 5875 5877 5879 5880 5883 5884 5886 5888 5889 5891 5893 5894
5799 5799 5800 5801 5803 5804 5806 5809 5812 5815 5818 5822 5825 5829 5833 5836 5839 5842 5846 5849 5852 5854 5856 5859 5861 5863 5865 5867 5869 5870 5872 5874 5876 5877 5879 5881 5883 5885 5887 5888 5890 5892 5893
5793 5793 5793 5794 5795 5797 5799 5802 5805 5808 5812 5815 5819 5823 5827 5830 5834 5837 5840 5844 5847 5850 5853 5855 5858 5860 5862 5865 5867 5869 5870 5872 5874 5876 5878 5880 5882 5884 5885 5887 5888 5890 5891
5788 5787 5787 5787 5788 5790 5792 5794 5797 5800 5804 5808 5812 5816 5820 5824 5828 5832 5835 5839 5842 5846 5849 5852 5854 5857 5859 5862 5864 5866 5868 5870 5872 5874 5876 5878 5880 5882 5884 5885 5887 5888 5890
5782 5781 5781 5781 5782 5783 5785 5787 5790 5793 5797 5801 5805 5809 5814 5818 5822 5826 5830 5834 5837 5841 5844 5847 5850 5853 5856 5859 5861 5863 5866 5868 5870 5872 5874 5876 5878 5880 5882 5883 5885 5886 5887
5777 5776 5776 5776 5776 5777 5779 5781 5783 5787 5790 5794 5798 5803 5807 5812 5816 5820 5824 5828 5832 5836 5839 5843 5846 5849 5852 5855 5857 5860 5863 5865 5867 5869 5872 5874 5876 5877 5879 5881 5882 5884 5885
5773 5772 5771 5770 5771 5772 5773 5775 5777 5780 5784 5788 5792 5796 5800 5805 5809 5813 5818 5822 5826 5830 5834 5837 5841 5844 5847 5851 5853 5856 5859 5862 5864 5866 5868 5870 5872 5874 5876 5878 5879 5881 5882
5770 5768 5767 5766 5766 5767 5768 5770 5772 5775 5778 5782 5786 5790 5794 5799 5803 5807 5811 5816 5820 5824 5828 5831 5835 5839 5842 5846 5849 5852 5855 5858 5860 5863 5865 5867 5869 5871 5873 5875 5876 5878 5879
5767 5765 5763 5763 5762 5762 5763 5765 5766 5769 5772 5776 5780 5784 5788 5792 5796 5801 5805 5809 5813 5817 5821 5825 5830 5833 5837 5841 5844 5847 5850 5853 5856 5858 5861 5863 5865 5867 5869 5871 5872 5874 5875
5765 5763 5761 5760 5759 5759 5759 5760 5762 5764 5767 5771 5775 5779 5782 5786 5790 5794 5798 5802 5807 5811 5815 5819 5823 5827 5831 5835 5839 5842 5845 5848 5851 5853 5856 5858 5860 5863 5865 5866 5868 5870 5871
5764 5761 5759 5757 5756 5756 5756 5756 5758 5760 5763 5766 5769 5773 5776 5780 5783 5787 5792 5796 5800 5804 5809 5813 5817 5821 5825 5829 5833 5836 5840 5843 5846 5848 5851 5853 5855 5857 5860 5861 5863 5865 5866
5763 5760 5758 5756 5755 5754 5753 5753 5754 5756 5759 5762 5765 5768 5771 5774 5777 5781 5785 5789 5793 5798 5802 5806 5811 5815 5819 5822 5826 5830 5834 5837 5840 5842 5845 5847 5850 5852 5854 5856 5858 5860 5861
5762 5760 5757 5755 5753 5752 5751 5751 5752 5753 5755 5758 5760 5763 5766 5769 5772 5775 5779 5783 5787 5791 5795 5800 5804 5808 5812 5815 5819 5823 5827 5830 5833 5836 5839 5841 5844 5846 5848 5850 5852 5853 5855
5763 5760 5757 5755 5752 5751 5750 5750 5750 5751 5752 5754 5756 5759 5761 5764 5767 5770 5773 5777 5781 5785 5789 5793 5797 5801 5805 5808 5812 5816 5820 5823 5826 5829 5832 5834 5837 5839 5841 5844 5845 5847 5849
5764 5760 5757 5754 5752 5750 5749 5748 5748 5749 5750 5752 5753 5755 5757 5760 5762 5765 5768 5771 5775 5779 5783 5786 5790 5794 5798 5802 5805 5809 5812 5815 5819 5821 5824 5827 5829 5832 5834 5836 5838 5840 5842
5765 5761 5757 5755 5752 5750 5749 5748 5748 5748 5748 5749 5751 5752 5754 5756 5758 5760 5763 5766 5769 5773 5776 5780 5784 5787 5791 5795 5798 5801 5804 5808 5811 5814 5817 5819 5822 5824 5826 5829 5831 5833 5834
5765 5762 5758 5755 5753 5751 5749 5748 5747 5747 5747 5747 5748 5749 5751 5752 5754 5756 5759 5761 5764 5767 5771 5774 5777 5781 5784 5788 5790 5793 5796 5800 5803 5806 5809 5811 5814 5816 5818 5820 5823 5825 5827
5767 5763 5759 5756 5753 5751 5749 5748 5747 5746 5746 5746 5746 5747 5748 5749 5750 5752 5754 5756 5759 5762 5765 5768 5771 5774 5777 5780 5783 5786 5789 5792 5795 5797 5800 5803 5805 5808 5810 5812 5814 5817 5819
5768 5764 5761 5757 5754 5752 5750 5748 5747 5746 5745 5745 5744 5744 5745 5746 5747 5748 5750 5752 5754 5756 5759 5762 5765 5768 5771 5773 5776 5779 5782 5784 5786 5789 5792 5794 5797 5799 5801 5803 5805 5808 5810
5770 5766 5762 5759 5756 5753 5751 5749 5747 5746 5745 5744 5744 5743 5743 5744 5744 5745 5746 5747 5749 5752 5754 5757 5759 5762 5765 5767 5770 5772 5774 5776 5778 5781 5783 5786 5788 5790 5792 5795 5797 5799 5801
5771 5767 5764 5760 5757 5754 5752 5750 5748 5746 5745 5744 5743 5742 5742 5742 5742 5742 5743 5744 5746 5748 5750 5752 5754 5757 5759 5761 5763 5765 5767 5769 5771 5772 5775 5777 5779 5782 5783 5785 5787 5789 5791
5772 5768 5765 5761 5758 5756 5753 5751 5749 5747 5745 5744 5743 5741 5741 5740 5740 5740 5741 5742 5743 5744 5746 5747 5749 5751 5753 5755 5757 5758 5760 5762 5764 5766 5767 5769 5770 5773 5774 5776 5778 5780 5781
5773 5769 5766 5762 5759 5756 5754 5751 5749 5747 5746 5744 5742 5741 5740 5739 5738 5738 5739 5739 5740 5740 5742 5743 5744 5745 5747 5749 5750 5752 5753 5755 5757 5757 5759 5761 5762 5764 5765 5767 5768 5770 5772
5773 5769 5766 5763 5760 5757 5754 5752 5750 5748 5746 5744 5742 5741 5739 5738 5737 5737 5737 5737 5737 5737 5738 5739 5739 5740 5741 5742 5744 5745 5746 5748 5749 5750 5752 5753 5754 5755 5756 5758 5759 5761 5762
5772 5769 5766 5763 5760 5757 5754 5752 5750 5747 5745 5744 5742 5740 5739 5737 5736 5735 5735 5734 5734 5734 5734 5734 5734 5735 5736 5737 5738 5739 5740 5742 5743 5743 5744 5745 5746 5747 5748 5749 5750 5751 5752
5772 5768 5765 5762 5759 5757 5754 5751 5749 5747 5744 5743 5741 5739 5737 5736 5735 5734 5733 5732 5732 5731 5731 5730 5730 5730 5730 5731 5732 5733 5734 5735 5736 5736 5736 5737 5738 5738 5739 5740 5741 5742 5743